Flag for U.S.A. Weather past 2 weeks in Hayward, California, U.S.A.

Now
69 °F

Sunny.


Feels Like: 69 °F
Forecast: 63 / 79 °F
Wind: 6 mph from Northwest

Location: Hayward Air Terminal

Current Time: Jul 1, 2015 at 9:23:01 PM

Latest Report: Jul 1, 2015 at 7:54 PM


Visibility: 10 mi

Pressure: 29.89 "Hg

Humidity: 63%

Dew point: 56 °F

Location of HaywardLocation

Historic Weather in Hayward — Graph

°F

Hayward temperature yesterday

Maximum temperature yesterday: 84 °F (at 4:54 PM)
Minimum temperature yesterday: 58 °F (at 5:54 AM)
Average temperature yesterday: 70 °F

Past Weeks' High & Low Weather Summary

 TemperatureHumidityPressure
High86 °F (Jun 25, 4:54 PM)90% (Jun 20, 10:54 PM)30.10 "Hg (Jun 20, 10:54 PM)
Low53 °F (Jun 19, 4:54 AM)36% (Jun 25, 4:54 PM)29.82 "Hg (Jun 30, 5:54 PM)
Average64 °F70%29.97 "Hg
* Reported Jun 16 7:54 PM — Jul 1 7:54 PM, Hayward, Weather by CustomWeather, © 2015

Note: Actual official high and low records may vary slightly from our data, if they occured in-between our weather recording intervals... More about our weather records

Advertising

Hayward weather history for previous 24 hours

 ConditionsComfort  
Time TempWeatherWind HumidityBarometerVisibility
7:54 PM
Wed, Jul 1
69 °FSunny.6 mph63%29.89 "Hg10 mi
6:54 PM77 °FSunny.9 mph40%29.88 "Hg10 mi
5:54 PM76 °FPassing clouds.14 mph47%29.88 "Hg10 mi
4:54 PM80 °FSunny.9 mph42%29.91 "Hg10 mi
3:54 PM81 °FSunny.14 mph42%29.92 "Hg10 mi
2:54 PM81 °FSunny.13 mph42%29.93 "Hg10 mi
1:54 PM82 °FSunny.13 mph44%29.93 "Hg10 mi
12:54 PM80 °FSunny.12 mph51%29.93 "Hg10 mi
11:54 AM77 °FSunny.9 mph56%29.94 "Hg10 mi
10:54 AM74 °FSunny.6 mph62%29.93 "Hg10 mi
9:54 AM71 °FSunny.5 mph66%29.93 "Hg10 mi
8:54 AM68 °FSunny.No wind68%29.90 "Hg10 mi
7:54 AM63 °FSunny.No wind78%29.88 "Hg10 mi
6:54 AM61 °FSunny.No wind83%29.87 "Hg10 mi
5:54 AM61 °FClear.No wind83%29.87 "Hg10 mi
4:54 AM60 °FClear.3 mph86%29.85 "Hg10 mi
3:54 AM61 °FClear.3 mph83%29.85 "Hg10 mi
2:54 AM62 °FClear.6 mph80%29.85 "Hg10 mi
1:54 AM62 °FClear.7 mph80%29.86 "Hg10 mi
12:54 AM63 °FClear.6 mph78%29.88 "Hg10 mi
11:54 PM
Tue, Jun 30
64 °FClear.6 mph78%29.89 "Hg10 mi
10:54 PM65 °FClear.5 mph76%29.88 "Hg10 mi
9:54 PM68 °FClear.3 mph73%29.87 "Hg10 mi
Weather by CustomWeather, © 2015

See weather overviewHow to use our weather pages